Simultaneous Nadir Overpasses (SNOs) Predictions

Prediction of SNOs over PacNW region [( 10.00, 139.50) to ( 22.70, 165.60)] between AQUA and NPP Satellites:

Table of predicted SNOs over PacNW region for the next 30.0 days since TLE Epoch: 7/6/2018
Index Date (AQUA) Time (AQUA) AQUA Lat,Lon Date (NPP) Time (NPP) NPP Lat,Lon Distance(km) Time Diff (sec)
1 07/14/2018 15:10:11 22.64, 159.86 07/14/2018 15:10:49 23.20, 157.36 263.58 38
2 07/22/2018 15:59:36 22.64, 147.50 07/22/2018 16:01:31 23.28, 144.71 294.70 115
3 07/30/2018 15:10:07 22.59, 159.85 07/30/2018 15:10:46 23.13, 157.37 261.11 39




NCC Satellite Simultaneous Nadir Overpasses (SNOs) Prediction Service
